Regional Weather Roundup
Issued by NWS

Home | Current Version | Previous Version | Text Only | Print | Product List | Glossary Off
Versions: 1 2 3 4 5 6 7 8 9 10 11 12 13 14 15 16 17 18 19 20 21 22 23 24 25 26 27 28 29 30 31 32 33 34 35 36 37 38 39 40 41 42 43 44 45 46 47 48 49 50

000
ASUS43 KIND 301759
RWRIN

WEATHER ROUNDUP FOR INDIANA
NATIONAL WEATHER SERVICE INDIANAPOLIS IN
200 PM EDT SAT MAY 30 2015

NOTE: "FAIR" INDICATES FEW OR NO CLOUDS BELOW 12,000 FEET WITH NO
SIGNIFICANT WEATHER AND/OR OBSTRUCTIONS TO VISIBILITY.

* - STATION DOES NOT REPORT WEATHER SUCH AS PRECIPITATION OR FOG.

+ - STATION NOT QUALITY CONTROLLED BY THE NATIONAL WEATHER SERVICE.
    USE DATA WITH CAUTION...ESPECIALLY DEWPOINT AND RELATIVE
    HUMIDITY OBSERVATIONS.

INZ001>003-010>013-019-020-301900-
NORTHWEST INDIANA

CITY           SKY/WX    TMP DP  RH WIND       PRES   REMARKS
GARY /AIRPORT/ CLOUDY    55  54  94 N9G21     30.03R FOG
MONTICELLO +   LGT RAIN  75  68  80 CALM      29.95F
6HR MIN TEMP:  67; 6HR MAX TEMP:  76; 6HR PCP:  0.08;

RENSSELAER +   CLOUDY    73  70  88 SE3       29.97F

$$

LMZ046-743>745-301900-
SOUTHERN LAKE MICHIGAN

STATION/POSITION TIME  TEMP    WIND        PRES    WAVE
                       AIR SEA DIR/SP/G            HT
                 (UTC) (F)     (DEG/KT/KT) (MB)    (FT)
BURNS HARBOR     1700   52     340/ 10/ 16 1016.6S
MICHIGAN CITY    1700   62     220/  4/  4   N/A
5NW MICH CITY    1700   51 57  350/ 14/ 16   N/A     0

$$

INZ004-005-014>016-021>024-301900-
NORTH CENTRAL INDIANA

CITY           SKY/WX    TMP DP  RH WIND       PRES   REMARKS
ELKHART        CLOUDY    72  68  88 W5        29.99F
GOSHEN         PTSUNNY   77  67  71 VRB3      29.98F
6HR MIN TEMP:  70; 6HR MAX TEMP:  77; 6HR PCP: TRACE;

PERU/GRISSOM   DRIZZLE   79  68  69 CALM      29.96F
SOUTH BEND     CLOUDY    74  66  76 W3        29.99F
6HR MIN TEMP:  69; 6HR MAX TEMP:  74; 6HR PCP:  0.11;

WARSAW +       PTSUNNY   79  68  69 W8        29.98F

$$

INZ006>009-017-018-025>027-301900-
NORTHEAST INDIANA

CITY           SKY/WX    TMP DP  RH WIND       PRES   REMARKS
ANGOLA *+      PTSUNNY   84  79  84 W7        29.98F HX  96
FORT WAYNE     PTSUNNY   75  67  76 SE3       29.99F
6HR MIN TEMP:  70; 6HR MAX TEMP:  80; 6HR PCP:  0.16;


$$

INZ028-029-035-036-043>045-051>053-301900-
WEST CENTRAL INDIANA

CITY           SKY/WX    TMP DP  RH WIND       PRES   REMARKS
CRAWFORDSVL +  CLOUDY    75  64  68 W7        29.95F
6HR MIN TEMP:  67; 6HR MAX TEMP:  81;

GREENCASTLE +  MOSUNNY   75  64  69 SE14      29.97F
LAFAYETTE      CLOUDY    73  70  90 VRB3      29.95F FOG
6HR MIN TEMP:  67; 6HR MAX TEMP:  77; 6HR PCP:  0.20;

TERRE HAUTE    PTSUNNY   83  69  62 S15G24    29.94F
6HR MIN TEMP:  70; 6HR MAX TEMP:  83; 6HR PCP: TRACE;


$$

INZ030>032-037>040-046>048-054>057-064-065-301900-
CENTRAL INDIANA

CITY           SKY/WX    TMP DP  RH WIND       PRES   REMARKS
ANDERSON       MOSUNNY   82  63  51 S12G17    29.99F
GREENWOOD *+   CLOUDY    73  68  83 W6        30.00S
INDIANAPOLIS   LGT RAIN  68  65  90 S7        29.97F
6HR MIN TEMP:  66; 6HR MAX TEMP:  82; 6HR PCP:  0.60;

-EAGLE CREEK   TSTM      67  65  93 S9        29.98R
6HR MIN TEMP:  67; 6HR MAX TEMP:  83; 6HR PCP:  0.17;

KOKOMO *+      CLOUDY    70  64  83 N6        30.00R THUNDER
6HR MIN TEMP:  70; 6HR MAX TEMP:  81; 6HR PCP:  0.43;

MT COMFORT *+  MOSUNNY   82  54  36 SW20      29.98F
SHELBYVILLE    MOSUNNY   86  67  52 S17G25    29.98F
6HR MIN TEMP:  72; 6HR MAX TEMP:  86; 6HR PCP:  0.07;


$$

INZ033-034-041-042-049-050-058-059-301900-
EAST CENTRAL INDIANA

CITY           SKY/WX    TMP DP  RH WIND       PRES   REMARKS
MUNCIE         HVY RAIN  75  67  76 W12       29.98F
6HR MIN TEMP:  71; 6HR MAX TEMP:  84; 6HR PCP:  0.09;


$$

INZ060-061-067>069-081>083-085>088-301900-
SOUTHWEST INDIANA

CITY           SKY/WX    TMP DP  RH WIND       PRES   REMARKS
EVANSVILLE     MOSUNNY   83  67  58 SW18G24   29.96F
6HR MIN TEMP:  72; 6HR MAX TEMP:  83;

HUNTINGBURG *+ CLOUDY    82  66  57 S21       29.98F
6HR MIN TEMP:  72; 6HR MAX TEMP:  82;


$$

INZ062-063-066-070>080-084-089>092-301900-
SOUTH CENTRAL AND SOUTHEAST INDIANA

CITY           SKY/WX    TMP DP  RH WIND       PRES   REMARKS
BLOOMINGTON    PTSUNNY   81  71  71 SW8       29.98F
6HR MIN TEMP:  69; 6HR MAX TEMP:  81;

MADISON *+     MOSUNNY   82  63  51 SE7G16    30.03F
SEYMOUR +      MOSUNNY   79  64  61 S12       30.00F

$$




USA.gov is the U.S. government's official web portal to all federal, state and local government web resources and services.